RH
49 51 52 53 54 59 66 70 57 65 64 58 52 46 40 35 32 31 31 33 31 28 25 21 17 14 12 10 10 8 7 6 4 4 6 4 6 12
49 51 52 53 55 62 68 73 65 61 69 67 62 54 47 42 39 39 39 37 35 33 29 22 17 15 12 11 11 10 7 4 4 3 3 4 3 4
53 53 54 56 59 67 75 77 71 60 67 70 69 64 55 50 46 45 44 43 40 35 28 22 19 16 14 14 14 12 11 8 3 3 2 3 3 2
62 59 60 61 65 73 79 80 74 65 66 68 69 69 64 56 53 51 50 48 45 38 30 24 22 18 16 16 12 9 7 6 5 3 2 2 2 2
72 75 81 78 82 94 96 94 91 84 76 75 79 77 70 61 57 55 54 52 46 38 31 27 23 19 17 13 10 8 6 5 4 3 3 2 2 1
95 94 96 96 97 96 96 97 97 96 92 91 92 85 70 57 54 55 55 49 41 35 31 24 20 20 16 11 8 7 5 4 4 3 3 2 2 2
96 97 97 96 97 95 96 95 93 94 96 95 91 71 58 54 59 58 49 38 31 21 19 18 18 16 12 8 7 6 5 4 3 3 3 3 2 2
97 96 96 97 97 95 99 93 92 89 95 95 90 82 72 63 51 43 36 27 18 17 18 14 12 10 8 7 6 5 4 3 3 4 4 4 3 2
96 97 97 97 96 97 99 94 90 92 96 96 93 83 72 56 45 29 21 19 20 18 13 9 8 6 6 5 5 4 4 3 3 4 5 4 4 3
96 96 96 96 97 97 98 96 93 96 97 94 88 67 47 35 23 18 15 12 10 9 8 8 7 6 6 5 5 5 5 5 4 4 5 5 5 4
96 96 96 96 96 96 96 96 99 96 89 73 40 31 27 17 13 12 12 11 11 10 10 9 8 7 7 8 9 8 8 8 8 7 6 6 6 6
95 95 94 100 98 98 100 96 75 44 30 26 22 17 16 15 15 15 15 15 15 14 12 13 13 12 11 12 13 13 13 14 13 12 9 8 8 8
93 94 96 96 96 96 96 82 59 67 37 24 23 22 22 21 20 20 20 20 19 19 17 17 18 18 19 16 15 18 18 18 19 17 15 12 10 10
97 99 98 96 96 94 95 96 80 40 31 32 31 30 27 24 24 24 21 18 16 16 17 18 22 22 20 20 19 19 24 24 22 20 18 16 15 14
98 98 97 97 99 92 64 48 41 40 41 40 33 28 27 25 13 7 7 7 7 6 6 7 9 12 17 21 22 22 22 25 23 20 20 21 19 17
98 98 98 93 72 60 53 44 42 46 42 32 29 25 11 7 8 8 8 8 8 8 9 10 10 10 10 10 11 22 28 27 25 22 19 24 27 22
98 97 88 67 60 55 51 50 49 42 33 32 16 9 10 10 10 9 9 11 11 11 11 12 14 15 14 13 13 12 14 24 28 25 22 26 34 29
96 95 78 63 59 59 58 56 47 37 33 14 15 15 13 12 13 11 10 11 10 12 14 14 14 15 17 18 16 16 14 13 14 25 25 23 33 37
92 79 70 71 67 64 62 50 40 39 16 18 21 20 19 19 19 19 18 17 20 21 21 21 20 18 18 19 18 20 17 16 14 13 20 24 25 36
93 87 79 75 76 68 53 43 42 21 17 24 27 27 28 28 28 28 26 25 26 28 28 30 29 26 22 21 18 24 22 20 18 16 13 17 24 33
91 79 74 80 78 65 50 46 40 14 23 32 31 31 31 29 27 22 18 16 14 15 25 33 37 38 34 30 25 27 28 25 23 20 18 12 16 22
83 87 84 82 71 65 53 52 32 15 28 34 33 31 27 24 22 19 18 17 16 16 22 27 33 36 38 35 34 33 34 30 28 25 23 19 14 16
87 84 83 78 75 65 48 48 27 17 31 36 36 33 30 26 24 22 20 18 16 17 26 41 47 48 47 44 42 41 41 37 32 30 26 24 22 17
Wind_Speed
29 28 27 26 25 25 23 21 21 20 19 19 19 19 20 21 21 22 22 23 23 22 22 23 23 25 26 28 30 31 32 32 32 30 28 27 27 25
32 31 30 29 28 26 26 24 23 23 23 22 22 23 23 24 24 25 25 25 25 25 25 25 25 27 28 30 32 34 35 34 34 32 30 28 28 27
34 34 33 32 30 29 27 26 26 26 26 26 26 26 26 27 27 27 28 28 28 27 27 27 27 28 30 32 35 37 37 37 35 34 31 29 27 26
35 35 35 34 33 31 29 28 28 28 28 28 29 29 29 29 29 29 30 30 30 30 30 29 29 30 32 34 36 37 38 39 38 35 32 29 26 26
37 38 38 37 38 38 33 32 32 31 31 31 32 33 32 31 31 31 31 32 32 31 31 32 32 32 34 35 36 37 39 39 39 37 32 29 25 24
44 44 45 42 40 36 34 32 32 32 32 33 33 33 33 31 31 31 31 32 31 32 32 33 33 34 36 38 40 40 40 40 41 36 32 27 25 24
39 39 40 38 36 33 33 33 31 30 32 32 32 31 31 31 31 31 31 31 31 30 33 33 35 36 36 38 41 42 42 42 39 35 32 28 24 24
35 37 37 36 33 32 34 32 31 32 32 33 33 32 31 30 30 30 30 31 32 31 32 33 33 34 35 37 40 43 43 42 38 33 30 28 25 24
34 33 34 34 33 33 36 33 31 31 31 32 31 31 30 30 30 30 31 32 33 34 32 32 31 32 35 36 38 40 41 39 37 33 31 28 25 24
34 34 34 33 33 33 37 33 30 29 29 29 29 28 29 30 30 29 30 29 30 31 32 30 31 30 33 35 36 39 38 36 35 32 30 28 26 25
34 34 33 33 34 34 36 32 27 26 27 26 26 27 28 29 28 28 27 26 26 27 28 28 30 29 29 31 33 35 36 37 34 30 29 28 26 24
36 35 35 32 33 33 32 28 23 23 24 24 24 24 25 25 24 24 24 24 24 26 27 26 27 29 26 24 27 29 31 32 33 31 27 27 25 22
36 36 35 34 35 34 27 22 21 23 22 22 22 22 21 22 21 21 22 23 23 24 25 24 25 25 24 23 22 26 27 27 26 27 26 27 26 23
35 34 34 35 32 29 24 21 20 22 21 21 21 20 19 18 19 20 19 18 18 18 18 18 19 20 21 19 18 20 21 24 24 23 24 25 24 22
34 35 33 28 24 22 20 21 24 20 21 19 18 17 17 17 15 11 8 6 6 8 10 12 13 14 16 18 17 18 18 18 20 20 21 23 23 20
32 29 25 23 22 23 24 23 21 21 19 18 18 17 13 9 7 5 2 1 4 7 8 11 13 15 18 19 17 17 19 19 18 19 19 19 21 21
28 26 24 25 25 23 23 23 22 21 19 19 17 15 14 11 9 7 5 3 3 6 10 13 14 16 18 19 22 23 22 22 22 21 20 17 18 20
29 27 27 27 27 26 26 25 24 22 21 20 19 18 15 13 11 10 10 8 9 10 11 11 12 14 16 19 21 22 24 26 25 23 23 20 15 19
28 29 29 29 28 27 27 26 25 24 25 23 22 20 18 16 14 13 12 11 10 11 11 11 12 13 14 17 19 22 24 26 27 26 25 23 19 18
31 31 29 29 29 29 29 28 28 29 28 26 25 23 21 19 16 15 14 14 14 15 15 16 17 17 17 17 19 21 25 26 28 29 28 25 22 21
33 31 29 30 31 30 31 32 33 33 31 30 28 26 24 22 20 18 18 17 17 19 21 22 23 23 22 21 21 22 22 26 28 29 32 32 26 18
30 30 30 31 33 32 34 35 35 36 35 33 31 29 28 26 25 24 23 23 23 24 25 26 27 28 26 27 26 25 23 23 25 27 30 36 36 29
31 30 30 31 32 33 35 37 37 39 38 37 35 34 33 32 31 30 29 29 29 29 29 29 29 30 30 30 31 29 27 26 28 27 26 30 34 35
Wind_Direction
258 260 262 263 265 268 268 269 267 268 270 270 270 271 273 276 279 283 287 291 295 298 303 308 310 312 315 318 319 316 313 311 307 301 296 291 280 276
256 258 259 260 262 263 267 268 266 265 266 267 270 272 272 274 278 282 287 290 293 296 300 304 307 310 312 315 317 317 317 316 311 305 298 294 287 277
257 258 258 258 258 260 262 265 265 265 266 267 269 271 273 276 278 281 285 289 292 294 297 300 304 307 308 312 315 314 314 315 313 309 304 297 293 285
253 255 256 257 258 259 260 262 263 264 266 268 269 271 272 275 278 282 284 287 289 290 292 295 299 302 305 310 313 314 314 311 310 308 304 299 295 288
253 255 257 257 258 261 262 265 264 263 265 269 271 272 272 274 276 279 283 285 287 288 290 293 296 299 303 307 309 312 312 309 308 304 302 301 298 292
261 262 262 262 264 259 260 258 260 263 264 264 265 266 269 272 275 279 282 284 286 289 290 292 293 298 301 305 308 312 310 308 307 305 303 300 297 292
269 269 264 261 256 258 261 259 263 266 266 265 264 265 268 272 275 279 282 285 286 287 293 295 298 300 301 303 306 307 307 306 304 304 303 300 296 289
262 262 260 257 253 256 251 256 264 266 264 264 265 267 271 275 278 280 283 287 290 289 291 294 296 298 298 301 303 304 304 303 301 301 300 298 295 289
257 258 256 252 252 255 249 256 263 265 265 266 267 268 273 277 280 285 288 289 290 291 292 294 297 300 301 303 303 301 299 298 298 299 298 296 293 289
253 252 250 250 253 254 249 252 259 262 265 267 268 271 274 278 283 286 288 290 290 291 293 297 296 300 302 303 301 300 299 297 295 295 295 294 292 288
252 251 251 253 254 252 252 248 250 253 257 261 266 271 276 279 282 285 287 288 291 293 294 297 297 297 298 300 300 298 297 297 297 294 292 290 289 287
248 248 249 252 251 246 241 239 243 251 257 262 267 271 274 279 282 284 287 290 292 292 293 296 297 297 295 293 293 293 293 295 297 298 294 289 288 283
251 252 250 243 239 233 228 232 241 248 258 263 265 268 271 274 278 283 287 290 293 295 298 300 300 302 306 303 297 296 295 294 294 295 296 291 289 288
251 249 242 234 226 227 229 236 245 250 255 257 261 263 267 273 279 285 288 292 294 297 302 306 309 310 307 308 307 295 302 301 299 296 292 289 288 288
239 233 228 225 222 224 232 235 242 246 247 250 253 258 265 271 274 276 288 304 323 335 345 348 348 340 330 328 324 312 308 306 301 296 292 292 289 283
224 219 217 222 227 231 236 240 242 242 242 243 248 253 244 223 216 218 212 298 346 357 12 16 14 18 16 5 347 335 326 321 312 306 298 297 295 290
220 220 224 230 233 235 238 239 239 237 233 238 227 213 212 211 211 215 212 225 302 332 338 345 351 357 1 3 4 359 348 341 334 324 310 306 302 294
221 225 230 232 234 233 234 233 230 228 226 212 209 212 213 215 222 227 234 248 278 298 308 319 330 344 349 346 350 353 355 356 348 338 328 318 309 298
235 232 231 233 233 233 230 227 225 222 209 208 211 213 215 217 225 237 246 257 271 288 294 303 314 329 338 341 344 337 345 349 352 349 339 329 316 301
237 238 235 234 232 230 228 225 223 211 210 212 212 216 219 225 234 242 250 260 273 284 287 294 302 310 319 328 334 333 332 335 343 347 344 337 323 308
242 241 238 232 230 230 231 227 217 212 215 215 218 222 228 232 237 245 251 260 273 283 284 285 291 298 304 310 318 323 326 326 331 337 341 339 330 315
238 237 235 232 231 231 232 226 217 217 219 221 225 230 235 240 245 251 257 265 272 283 286 282 284 287 293 299 307 312 316 318 321 325 330 335 333 324
232 234 236 237 237 237 234 226 223 223 226 229 233 237 242 247 252 257 263 267 272 277 282 282 282 283 286 292 298 303 308 312 313 314 318 321 326 319